316P/LONEOS-Christensen (2006)

Japanese version
Home page
Updated on February 1, 2015

---------------------------------------------------------------------

* Profile

Designation 316P/2005 RV25
Discovery Date September 11 and October 22, 2005
Magnitude 17.7 mag, 18.3 mag
Discoverer Lowell Observatory Near-Earth Object Search, Eric Christensen (Mt. Lemmon Survey)

* Orbital Elements

Epoch 2006 Nov. 1.0 TT = JDT 2454040.5
T 2006 Nov. 7.77867 TT                                  MPCW
q   3.6067161            (2000.0)            P               Q
n   0.10947311     Peri.  191.77739     +0.19844942     -0.96730669
a   4.3277723      Node   246.93915     +0.91259409     +0.24112828
e   0.1666114      Incl.    9.88230     +0.35747706     -0.07858067
P   9.00
From 85 observations 2005 Sept. 11-2014 Nov. 17, mean residual 0".7.

* Magnitudes Graph

        m1 = -39.5 + 5 log d + 100 log r(t + 400)

---------------------------------------------------------------------

The orbital elements are published on M.P.E.C. 2014-W19.
The magnitudes graphs are made with Comet for Windows.

---------------------------------------------------------------------

Copyright(C) Seiichi Yoshida (comet@aerith.net). All rights reserved.